Date String (YYYY-MM-DD hh:mm:ss) UTC,Instrument flags,absolute air pressure of the measurement (hPa),sample flow rate (lpm),inlet stack bypass flow (lpm),air temperature of the measurement (°C),ambient temperature measured by the external sensor (°C),aerosol sample conditioner tube jacket temperature (°C),OPC LED temperature (°C),internal box temperature (°C),relative humidity of the measurement (%),span deviation,mass concentration of particles derived from Lorenz-Mie calculation of OPC scattering (μg/m³),mass concentration of particles derived from Lorenz-Mie calculation of OPC scattering (μg/m³),mass concentration of particles derived from Lorenz-Mie calculation of OPC scattering (μg/m³)
DateTimeUTC,F1_M11,P_M11,Q1_M11,Q2_M11,T1_M11,T2_M11,T3_M11,T4_M11,T5_M11,U1_M11,ZSPAN_M11,X0_M11,X2_M11,X1_M11
2024-05-28 23:00:00,SystemResetWarning,0832.5,5.01,000.00,029.9,029.4,000.0,038.0,031.7,015.3,0000.0,0020.94,0004.13,0002.73
2024-05-28 23:01:00,SystemResetWarning,0832.5,4.99,000.00,030.0,029.5,000.0,038.0,031.8,015.5,0000.0,0020.28,0004.11,0002.72
2024-05-28 23:02:00,SystemResetWarning,0832.5,4.99,000.00,030.0,029.6,000.0,038.1,031.9,015.2,0000.0,0019.61,0004.07,0002.71
2024-05-28 23:03:00,SystemResetWarning,0832.5,5.00,000.00,030.1,029.2,000.0,038.1,031.6,015.2,0000.0,0018.84,0004.06,0002.72
2024-05-28 23:04:00,SystemResetWarning,0832.4,5.00,000.00,029.7,026.6,000.0,038.2,030.4,016.3,0000.0,0017.83,0004.00,0002.71
2024-05-28 23:05:00,SystemResetWarning,0832.3,5.01,000.00,029.3,025.5,000.0,038.1,029.8,017.7,0000.0,0018.41,0003.99,0002.71
2024-05-28 23:06:00,SystemResetWarning,0832.4,5.00,000.00,029.1,026.1,000.0,038.0,029.9,017.2,0000.0,0018.01,0003.95,0002.71
2024-05-28 23:07:00,SystemResetWarning,0832.5,5.00,000.00,029.1,026.6,000.0,037.9,030.2,016.5,0000.0,0017.27,0003.94,0002.69
2024-05-28 23:08:00,SystemResetWarning,0832.5,5.00,000.00,029.1,027.1,000.0,037.8,030.5,017.9,0000.0,0016.03,0003.97,0002.67
2024-05-28 23:09:00,SystemResetWarning,0832.5,5.01,000.00,029.2,027.5,000.0,037.8,030.7,016.5,0000.0,0014.98,0004.04,0002.68
2024-05-28 23:10:00,SystemResetWarning,0832.5,5.00,000.00,029.3,027.9,000.0,037.7,030.9,016.8,0000.0,0014.48,0004.03,0002.68
2024-05-28 23:11:00,SystemResetWarning,0832.6,5.00,000.00,029.3,028.2,000.0,037.7,031.0,016.7,0000.0,0015.25,0004.02,0002.68
2024-05-28 23:12:00,SystemResetWarning,0832.5,5.00,000.00,029.4,028.5,000.0,037.7,031.1,016.7,0000.0,0016.52,0004.08,0002.68
2024-05-28 23:13:00,SystemResetWarning,0832.5,5.00,000.00,029.5,028.7,000.0,037.7,031.2,016.3,0000.0,0017.09,0004.09,0002.66
2024-05-28 23:14:00,SystemResetWarning,0832.5,4.99,000.00,029.5,028.9,000.0,037.8,031.3,016.5,0000.0,0017.55,0004.12,0002.64
2024-05-28 23:15:00,SystemResetWarning,0832.5,4.99,000.00,029.6,029.1,000.0,037.8,031.4,016.2,0000.0,0017.49,0004.13,0002.63
2024-05-28 23:16:00,SystemResetWarning,0832.4,5.00,000.00,029.7,029.2,000.0,037.8,031.5,017.0,0000.0,0016.67,0004.12,0002.64
2024-05-28 23:17:00,SystemResetWarning,0832.4,5.00,000.00,029.8,029.4,000.0,037.9,031.6,017.3,0000.0,0016.51,0004.12,0002.63
2024-05-28 23:18:00,SystemResetWarning,0832.4,5.01,000.00,029.9,029.5,000.0,037.9,031.7,017.4,0000.0,0016.87,0004.11,0002.63
2024-05-28 23:19:00,SystemResetWarning,0832.3,4.98,000.00,029.9,029.6,000.0,037.9,031.8,017.2,0000.0,0016.98,0004.14,0002.64
2024-05-28 23:20:00,SystemResetWarning,0832.3,5.00,000.00,030.0,029.7,000.0,038.0,031.9,016.6,0000.0,0016.98,0004.08,0002.60
2024-05-28 23:21:00,SystemResetWarning,0832.3,5.00,000.00,030.1,029.4,000.0,038.1,031.7,017.3,0000.0,0018.07,0004.07,0002.60
2024-05-28 23:22:00,SystemResetWarning,0832.2,4.99,000.00,029.8,027.1,000.0,038.1,030.7,017.1,0000.0,0017.09,0004.11,0002.60
2024-05-28 23:23:00,SystemResetWarning,0832.2,5.03,000.00,029.5,026.7,000.0,038.1,030.5,017.2,0000.0,0016.41,0004.07,0002.60
2024-05-28 23:24:00,SystemResetWarning,0832.2,5.00,000.00,029.5,027.1,000.0,038.0,030.6,017.7,0000.0,0016.07,0004.06,0002.62
2024-05-28 23:25:00,SystemResetWarning,0832.2,5.00,000.00,029.5,027.5,000.0,038.0,030.8,017.4,0000.0,0016.20,0004.05,0002.63
2024-05-28 23:26:00,SystemResetWarning,0832.2,5.00,000.00,029.5,027.9,000.0,037.9,031.0,017.3,0000.0,0017.54,0004.08,0002.67
2024-05-28 23:27:00,SystemResetWarning,0832.2,5.00,000.00,029.6,028.3,000.0,037.9,031.2,017.0,0000.0,0017.64,0004.06,0002.67
2024-05-28 23:28:00,SystemResetWarning,0832.3,5.00,000.00,029.6,028.5,000.0,037.9,031.3,017.8,0000.0,0019.80,0004.19,0002.68
2024-05-28 23:29:00,SystemResetWarning,0832.3,5.00,000.00,029.7,028.8,000.0,037.9,031.4,017.0,0000.0,0024.56,0004.53,0002.72
2024-05-28 23:30:00,SystemResetWarning,0832.3,5.00,000.00,029.8,029.0,000.0,037.9,031.5,016.5,0000.0,0026.10,0004.57,0002.76
2024-05-28 23:31:00,SystemResetWarning,0832.3,4.99,000.00,029.8,029.2,000.0,038.0,031.6,016.9,0000.0,0027.81,0004.66,0002.81
2024-05-28 23:32:00,SystemResetWarning,0832.4,4.99,000.00,029.9,029.3,000.0,038.0,031.7,016.9,0000.0,0027.91,0004.68,0002.83
2024-05-28 23:33:00,SystemResetWarning,0832.4,5.00,000.00,030.0,029.5,000.0,038.1,031.8,016.9,0000.0,0027.81,0004.68,0002.84
2024-05-28 23:34:00,SystemResetWarning,0832.4,5.00,000.00,030.0,029.6,000.0,038.1,031.9,016.2,0000.0,0029.00,0004.70,0002.86
2024-05-28 23:35:00,SystemResetWarning,0832.3,5.00,000.00,030.1,029.1,000.0,038.1,031.6,015.5,0000.0,0028.88,0004.74,0002.88
2024-05-28 23:36:00,SystemResetWarning,0832.3,5.00,000.00,029.8,026.9,000.0,038.2,030.6,015.9,0000.0,0028.78,0004.77,0002.90
2024-05-28 23:37:00,SystemResetWarning,0832.2,5.02,000.00,029.5,026.8,000.0,038.2,030.4,016.5,0000.0,0028.70,0004.79,0002.91
2024-05-28 23:38:00,SystemResetWarning,0832.3,5.00,000.00,029.4,027.2,000.0,038.1,030.5,016.6,0000.0,0029.28,0004.80,0002.92
2024-05-28 23:39:00,SystemResetWarning,0832.3,5.00,000.00,029.5,027.5,000.0,038.0,030.8,016.8,0000.0,0030.23,0004.87,0002.94
2024-05-28 23:40:00,SystemResetWarning,0832.3,5.01,000.00,029.5,027.9,000.0,037.9,031.0,016.3,0000.0,0026.61,0004.72,0002.95
2024-05-28 23:41:00,SystemResetWarning,0832.3,5.00,000.00,029.6,028.2,000.0,037.9,031.2,016.4,0000.0,0022.70,0004.49,0002.94
2024-05-28 23:42:00,SystemResetWarning,0832.3,4.99,000.00,029.6,028.5,000.0,037.9,031.3,015.8,0000.0,0023.52,0004.45,0002.92
2024-05-28 23:43:00,SystemResetWarning,0832.3,5.00,000.00,029.7,028.7,000.0,037.9,031.4,015.7,0000.0,0023.40,0004.38,0002.91
2024-05-28 23:44:00,SystemResetWarning,0832.3,5.00,000.00,029.7,028.9,000.0,038.0,031.5,015.5,0000.0,0023.28,0004.36,0002.89
2024-05-28 23:45:00,SystemResetWarning,0832.3,5.00,000.00,029.8,029.1,000.0,038.0,031.6,015.4,0000.0,0022.97,0004.38,0002.90
2024-05-28 23:46:00,SystemResetWarning,0832.3,5.00,000.00,029.9,029.2,000.0,038.0,031.6,015.4,0000.0,0023.22,0004.40,0002.89
2024-05-28 23:47:00,SystemResetWarning,0832.4,5.00,000.00,029.9,029.3,000.0,038.0,031.7,015.6,0000.0,0022.90,0004.34,0002.87
2024-05-28 23:48:00,SystemResetWarning,0832.3,5.01,000.00,030.0,029.4,000.0,038.1,031.8,016.3,0000.0,0021.97,0004.27,0002.83
2024-05-28 23:49:00,SystemResetWarning,0832.3,5.00,000.00,030.0,029.5,000.0,038.1,031.8,017.3,0000.0,0020.51,0004.25,0002.79
2024-05-28 23:50:00,SystemResetWarning,0832.2,5.00,000.00,030.1,029.6,000.0,038.2,031.9,017.2,0000.0,0018.68,0004.17,0002.76
2024-05-28 23:51:00,SystemResetWarning,0832.3,5.00,000.00,030.1,029.6,000.0,038.2,031.9,017.2,0000.0,0018.52,0004.12,0002.72
2024-05-28 23:52:00,SystemResetWarning,0832.1,5.00,000.00,030.2,029.7,000.0,038.2,032.0,017.8,0000.0,0017.70,0004.06,0002.67
2024-05-28 23:53:00,SystemResetWarning,0832.2,5.00,000.00,030.2,029.8,000.0,038.3,032.0,018.0,0000.0,0015.94,0003.97,0002.61
2024-05-28 23:54:00,SystemResetWarning,0832.2,4.99,000.00,030.3,029.8,000.0,038.3,032.1,017.9,0000.0,0014.68,0003.91,0002.57
2024-05-28 23:55:00,SystemResetWarning,0832.2,5.00,000.00,030.3,029.8,000.0,038.4,032.1,017.2,0000.0,0014.83,0003.91,0002.54
2024-05-28 23:56:00,SystemResetWarning,0832.1,4.99,000.00,030.2,028.8,000.0,038.4,031.5,017.0,0000.0,0013.38,0003.80,0002.47
2024-05-28 23:57:00,SystemResetWarning,0832.0,5.01,000.00,029.8,026.7,000.0,038.5,030.6,018.3,0000.0,0013.23,0003.72,0002.42
2024-05-28 23:58:00,SystemResetWarning,0831.9,5.01,000.00,029.6,026.8,000.0,038.4,030.4,018.2,0000.0,0013.48,0003.72,0002.39
2024-05-28 23:59:00,SystemResetWarning,0832.0,5.00,000.00,029.5,027.1,000.0,038.3,030.6,017.9,0000.0,0013.47,0003.69,0002.37
